This is the latest recevied weather packets stored in our database for station/object W4SKW. If no packets are shown the sender has not sent any weather packets the latest 10 day(s).
| Time | Temp. | Humidity | Pressure | Rain* | Wind** | Luminosity | Snow |
|---|---|---|---|---|---|---|---|
| 1777920440 | 25° C | 46% | 1016.7 hPa | 0 mm | - | 763 W/m² | - |
| 1777920136 | 25° C | 46% | 1016.7 hPa | 0 mm | - | 763 W/m² | - |
| 1777919832 | 25° C | 45% | 1016.5 hPa | 0 mm | - | 695 W/m² | - |
| 1777919529 | 25° C | 49% | 1016.6 hPa | 0 mm | - | 764 W/m² | - |
| 1777919227 | 25° C | 45% | 1016.7 hPa | 0 mm | - | 676 W/m² | - |
| 1777918924 | 25.56° C | 50% | 1016.9 hPa | 0 mm | - | 581 W/m² | - |
| 1777918621 | 25° C | 46% | 1016.7 hPa | 0 mm | - | 803 W/m² | - |
| 1777918319 | 25° C | 46% | 1016.7 hPa | 0 mm | - | 803 W/m² | - |
| 1777918018 | 23.89° C | 54% | 1016.9 hPa | 0 mm | - | 593 W/m² | - |
| 1777917716 | 23.89° C | 54% | 1016.9 hPa | 0 mm | - | 593 W/m² | - |
| 1777917413 | 24.44° C | 47% | 1016.9 hPa | 0 mm | - | 779 W/m² | - |
| 1777917109 | 23.89° C | 47% | 1017.3 hPa | 0 mm | - | 780 W/m² | - |
| 1777916808 | 23.89° C | 49% | 1017 hPa | 0 mm | - | 782 W/m² | - |
| 1777916504 | 23.89° C | 49% | 1017.1 hPa | 0 mm | - | 774 W/m² | - |
| 1777916201 | 23.89° C | 48% | 1017.3 hPa | 0 mm | - | 784 W/m² | - |
| 1777915898 | 23.89° C | 50% | 1017.5 hPa | 0 mm | - | 769 W/m² | - |
| 1777915595 | 23.89° C | 50% | 1017.8 hPa | 0 mm | - | 784 W/m² | - |
| 1777915292 | 23.33° C | 49% | 1017.7 hPa | 0 mm | - | 762 W/m² | - |
| 1777914988 | 23.33° C | 48% | 1017.8 hPa | 0 mm | - | 759 W/m² | - |
| 1777914685 | 23.33° C | 52% | 1017.8 hPa | 0 mm | - | 730 W/m² | - |
| 1777914381 | 22.78° C | 54% | 1018.1 hPa | 0 mm | - | 747 W/m² | - |
| 1777914079 | 23.33° C | 47% | 1018.2 hPa | 0 mm | - | 671 W/m² | - |
| 1777913775 | 23.33° C | 47% | 1018.2 hPa | 0 mm | - | 671 W/m² | - |
| 1777913472 | 22.22° C | 55% | 1018.2 hPa | 0 mm | - | 733 W/m² | - |
| 1777913168 | 22.78° C | 49% | 1018.2 hPa | 0 mm | - | 700 W/m² | - |
* Rain latest hour (hover to see other rain measurements)
** Current wind speed in m/s (hover to see current wind gust speed)